DW8343 Weather Reports


time (UTC)temp
C
wind
direction
speed
KPH
gust
KPH
rain 1hr
cm
rain 24hr
cm
rain mn
cm
humidity
%
barometer
mb
20260503200408 29 347 6.4 12.9 0.00 0.00 0.00 28 1015.8
20260503195905 29 174 6.4 14.5 0.00 0.00 0.00 27 1015.9
20260503195402 29 146 9.7 24.1 0.00 0.00 0.00 26 1015.9
20260503194859 29 241 4.8 9.7 0.00 0.00 0.00 26 1015.7
20260503194355 29 265 9.7 22.5 0.00 0.00 0.00 25 1016.3
20260503193851 29 230 9.7 12.9 0.00 0.00 0.00 25 1016.2
20260503193347 29 239 3.2 12.9 0.00 0.00 0.00 25 1016.1
20260503192843 29 196 6.4 14.5 0.00 0.00 0.00 23 1016.6
20260503192338 29 251 9.7 12.9 0.00 0.00 0.00 23 1016.4
20260503191835 28 229 8.0 12.9 0.00 0.00 0.00 23 1016.5
20260503191332 28 271 3.2 9.7 0.00 0.00 0.00 25 1016.7
20260503190829 28 249 6.4 14.5 0.00 0.00 0.00 24 1016.9
20260503190326 28 335 3.2 14.5 0.00 0.00 0.00 28 1016.6
20260503185823 28 278 6.4 17.7 0.00 0.00 0.00 26 1016.7
20260503185320 28 192 3.2 16.1 0.00 0.00 0.00 26 1016.7
20260503184819 28 286 6.4 16.1 0.00 0.00 0.00 24 1016.9
20260503184316 28 304 4.8 9.7 0.00 0.00 0.00 24 1016.9
20260503183811 28 223 3.2 14.5 0.00 0.00 0.00 26 1017.0
20260503183309 28 240 6.4 11.3 0.00 0.00 0.00 27 1017.1
20260503182806 29 129 6.4 20.9 0.00 0.00 0.00 27 1017.0
20260503182306 29 260 8.0 16.1 0.00 0.00 0.00 26 1017.1
20260503181802 29 16 3.2 6.4 0.00 0.00 0.00 30 1017.3
20260503181259 29 284 11.3 14.5 0.00 0.00 0.00 27 1017.2
20260503180755 28 228 11.3 17.7 0.00 0.00 0.00 28 1017.5
20260503180253 28 318 4.8 16.1 0.00 0.00 0.00 28 1017.6
20260503175749 28 207 1.6 16.1 0.00 0.00 0.00 30 1017.5
20260503175248 28 238 8.0 14.5 0.00 0.00 0.00 29 1017.5
20260503174743 28 18 3.2 9.7 0.00 0.00 0.00 34 1017.7
20260503174242 28 270 6.4 12.9 0.00 0.00 0.00 33 1017.8
20260503173742 28 236 6.4 9.7 0.00 0.00 0.00 34 1017.8
20260503173238 28 227 3.2 9.7 0.00 0.00 0.00 34 1017.9
20260503172735 28 354 1.6 9.7 0.00 0.00 0.00 35 1018.2
20260503172232 27 206 3.2 6.4 0.00 0.00 0.00 37 1018.2
20260503171728 27 283 3.2 6.4 0.00 0.00 0.00 36 1018.3
20260503171226 27 308 3.2 9.7 0.00 0.00 0.00 36 1018.3
20260503170723 27 322 3.2 6.4 0.00 0.00 0.00 37 1018.2
20260503170220 26 244 8.0 9.7 0.00 0.00 0.00 37 1018.2
20260503160141 24 269 3.2 4.8 0.00 0.00 0.00 40 1018.6
20260503150611 22 84 1.6 6.4 0.00 0.00 0.00 44 1018.6
20260503150108 21 35 1.6 3.2 0.00 0.00 0.00 48 1018.7
20260503130955 15 93 0.0 3.2 0.00 0.00 0.00 72 1018.7
20260503130453 13 233 3.2 4.8 0.00 0.00 0.00 73 1018.7
20260503110337 12 128 0.0 3.2 0.00 0.00 0.00 73 1018.4
20260503090224 13 35 3.2 4.8 0.00 0.00 0.00 64 1019.8
20260503081151 13 41 0.0 4.8 0.00 0.00 0.00 64 1020.0
20260503080646 14 1 1.6 3.2 0.00 0.00 0.00 63 1020.1
20260503080144 14 30 1.6 3.2 0.00 0.00 0.00 63 1020.3
20260503072621 14 106 1.6 3.2 0.00 0.00 0.00 61 1020.5
20260503072117 14 53 3.2 4.8 0.00 0.00 0.00 61 1020.6
20260503071614 14 91 1.6 6.4 0.00 0.00 0.00 61 1020.5
20260503071111 14 260 0.0 3.2 0.00 0.00 0.00 61 1020.7
20260503070608 14 58 1.6 4.8 0.00 0.00 0.00 61 1020.7
20260503070106 14 319 0.0 1.6 0.00 0.00 0.00 61 1020.9
20260503055026 15 354 0.0 1.6 0.00 0.00 0.00 59 1021.0
20260503054522 15 91 1.6 3.2 0.00 0.00 0.00 58 1021.2
20260503054020 15 350 1.6 3.2 0.00 0.00 0.00 58 1021.1
20260503053518 15 309 0.0 1.6 0.00 0.00 0.00 58 1021.1
20260503053015 15 52 0.0 1.6 0.00 0.00 0.00 58 1021.0
20260503052512 15 25 0.0 1.6 0.00 0.00 0.00 58 1021.2
20260503052008 15 45 0.0 1.6 0.00 0.00 0.00 58 1021.1
20260503051503 15 21 0.0 4.8 0.00 0.00 0.00 58 1021.1
20260503051001 15 159 0.0 3.2 0.00 0.00 0.00 59 1020.9
20260503050456 15 45 0.0 3.2 0.00 0.00 0.00 58 1021.0
20260503045955 15 116 0.0 1.6 0.00 0.00 0.00 58 1020.8
20260503045452 15 323 0.0 0.0 0.00 0.00 0.00 59 1021.0
20260503044949 15 33 3.2 4.8 0.00 0.00 0.00 57 1020.9
20260503044445 15 97 0.0 1.6 0.00 0.00 0.00 59 1020.8
20260503043943 15 92 1.6 1.6 0.00 0.00 0.00 57 1021.0
20260503043439 15 58 0.0 3.2 0.00 0.00 0.00 58 1020.9
20260503042935 15 44 1.6 1.6 0.00 0.00 0.00 58 1020.8
20260503042432 16 280 0.0 1.6 0.00 0.00 0.00 58 1020.9
20260503041929 16 220 0.0 1.6 0.00 0.00 0.00 57 1020.8
20260503041426 16 67 3.2 4.8 0.00 0.00 0.00 57 1020.7
20260503040923 16 21 0.0 1.6 0.00 0.00 0.00 56 1020.7
20260503040420 16 9 0.0 3.2 0.00 0.00 0.00 56 1020.7
20260503035918 16 46 0.0 4.8 0.00 0.00 0.00 53 1020.7
20260503035414 16 89 0.0 1.6 0.00 0.00 0.00 53 1020.8
20260503034912 16 31 1.6 3.2 0.00 0.00 0.00 53 1020.6
20260503034409 16 39 0.0 1.6 0.00 0.00 0.00 53 1020.9
20260503033906 16 27 0.0 3.2 0.00 0.00 0.00 53 1021.0
20260503033404 16 50 0.0 0.0 0.00 0.00 0.00 53 1020.8
20260503032902 16 113 1.6 1.6 0.00 0.00 0.00 52 1020.9
20260503032400 16 317 0.0 1.6 0.00 0.00 0.00 53 1020.7
20260503031857 16 23 0.0 1.6 0.00 0.00 0.00 52 1020.8
20260503031349 16 78 0.0 1.6 0.00 0.00 0.00 52 1020.8
20260503030845 16 39 0.0 1.6 0.00 0.00 0.00 52 1020.6
20260503030342 16 101 0.0 3.2 0.00 0.00 0.00 52 1020.7
20260503025839 16 101 0.0 1.6 0.00 0.00 0.00 52 1020.6
20260503025336 17 101 0.0 0.0 0.00 0.00 0.00 52 1020.6
20260503024833 16 254 0.0 0.0 0.00 0.00 0.00 54 1020.6
20260503024330 16 71 0.0 0.0 0.00 0.00 0.00 52 1020.7
20260503023827 17 71 0.0 0.0 0.00 0.00 0.00 53 1020.6
20260503023324 17 71 0.0 3.2 0.00 0.00 0.00 51 1020.6
20260503022821 17 20 0.0 1.6 0.00 0.00 0.00 52 1020.6
20260503022320 17 307 0.0 0.0 0.00 0.00 0.00 52 1020.7
20260503021817 17 347 0.0 0.0 0.00 0.00 0.00 52 1020.5
20260503021314 17 346 0.0 0.0 0.00 0.00 0.00 52 1020.4
20260503020811 17 345 0.0 1.6 0.00 0.00 0.00 52 1020.3
20260503020309 17 30 0.0 1.6 0.00 0.00 0.00 51 1020.3
20260503015805 18 31 0.0 0.0 0.00 0.00 0.00 50 1020.2
20260503015305 18 30 1.6 1.6 0.00 0.00 0.00 49 1020.4
20260503014757 17 30 1.6 4.8 0.00 0.00 0.00 51 1020.1
20260503014255 17 71 0.0 0.0 0.00 0.00 0.00 51 1020.2
20260503013752 18 71 0.0 0.0 0.00 0.00 0.00 50 1020.0
20260503013250 18 71 0.0 0.0 0.00 0.00 0.00 48 1020.0
20260503012747 18 71 0.0 0.0 0.00 0.00 0.00 48 1020.0
20260503012244 18 71 0.0 0.0 0.00 0.00 0.00 46 1020.0
20260503011741 19 71 0.0 0.0 0.00 0.00 0.00 46 1019.9
20260503011238 19 71 0.0 0.0 0.00 0.00 0.00 45 1019.8
20260503010734 20 71 0.0 0.0 0.00 0.00 0.00 43 1019.9
20260503010231 20 71 0.0 1.6 0.00 0.00 0.00 43 1019.8
20260503005729 20 71 0.0 0.0 0.00 0.00 0.00 42 1019.9
20260503005226 20 71 0.0 0.0 0.00 0.00 0.00 43 1020.0
20260503004722 20 71 0.0 0.0 0.00 0.00 0.00 42 1019.7
20260503004220 20 71 0.0 0.0 0.00 0.00 0.00 41 1019.9
20260503003717 20 71 0.0 0.0 0.00 0.00 0.00 40 1019.8
20260503003214 20 71 0.0 1.6 0.00 0.00 0.00 40 1019.8
20260503002711 21 71 0.0 0.0 0.00 0.00 0.00 41 1019.8
20260503002208 21 71 1.6 1.6 0.00 0.00 0.00 39 1020.0
20260503001704 21 71 0.0 1.6 0.00 0.00 0.00 41 1019.8
20260503001200 21 71 1.6 4.8 0.00 0.00 0.00 39 1019.9
20260503000658 22 337 0.0 0.0 0.00 0.00 0.00 37 1020.0
20260503000155 22 337 0.0 0.0 0.00 0.00 0.00 36 1019.8
20260502235652 22 337 0.0 1.6 0.00 0.00 0.00 38 1019.8
20260502235150 22 337 0.0 1.6 0.00 0.00 0.00 38 1019.8
20260502234646 22 257 0.0 3.2 0.00 0.00 0.00 39 1019.9
20260502234143 22 257 0.0 0.0 0.00 0.00 0.00 37 1019.9
20260502233638 22 257 0.0 0.0 0.00 0.00 0.00 38 1020.2
20260502233130 22 256 1.6 1.6 0.00 0.00 0.00 36 1020.0
20260502232626 23 8 0.0 1.6 0.00 0.00 0.00 38 1020.1
20260502232124 23 24 0.0 1.6 0.00 0.00 0.00 37 1019.9
20260502231620 22 23 0.0 3.2 0.00 0.00 0.00 37 1019.8
20260502231118 22 8 0.0 3.2 0.00 0.00 0.00 39 1020.2
20260502230616 22 318 0.0 0.0 0.00 0.00 0.00 37 1020.1
20260502230114 22 321 0.0 1.6 0.00 0.00 0.00 38 1020.2
20260502225609 23 10 1.6 1.6 0.00 0.00 0.00 37 1020.0
20260502225107 23 158 1.6 3.2 0.00 0.00 0.00 36 1020.0
20260502224603 23 87 1.6 6.4 0.00 0.00 0.00 37 1020.1
20260502224100 23 92 0.0 3.2 0.00 0.00 0.00 36 1020.0
20260502223558 23 239 3.2 4.8 0.00 0.00 0.00 35 1020.1
20260502223056 23 10 0.0 1.6 0.00 0.00 0.00 37 1020.1
20260502222553 24 128 1.6 4.8 0.00 0.00 0.00 35 1020.2
20260502222049 23 343 0.0 1.6 0.00 0.00 0.00 36 1020.2
20260502221545 23 352 0.0 4.8 0.00 0.00 0.00 38 1020.2
20260502221042 23 26 1.6 4.8 0.00 0.00 0.00 38 1020.3
20260502220538 24 3 1.6 4.8 0.00 0.00 0.00 37 1020.2
20260502220035 23 92 0.0 3.2 0.00 0.00 0.00 40 1020.5
20260502215532 23 92 1.6 3.2 0.00 0.00 0.00 36 1020.4
20260502215029 25 92 0.0 1.6 0.00 0.00 0.00 34 1020.6
20260502214526 24 92 0.0 3.2 0.00 0.00 0.00 36 1020.4
20260502214024 23 92 1.6 3.2 0.00 0.00 0.00 39 1020.6
20260502213520 23 235 1.6 3.2 0.00 0.00 0.00 37 1020.7
20260502213018 24 222 3.2 3.2 0.00 0.00 0.00 35 1020.6
20260502212516 24 10 0.0 1.6 0.00 0.00 0.00 38 1020.8
20260502212013 25 252 1.6 1.6 0.00 0.00 0.00 39 1020.7
20260502211509 23 294 1.6 3.2 0.00 0.00 0.00 36 1020.8
20260502211006 24 32 0.0 1.6 0.00 0.00 0.00 37 1020.9
20260502210503 23 114 3.2 3.2 0.00 0.00 0.00 37 1020.9
20260502210000 24 4 0.0 1.6 0.00 0.00 0.00 36 1020.9
20260502205456 24 274 3.2 3.2 0.00 0.00 0.00 39 1021.0
20260502204954 24 309 1.6 3.2 0.00 0.00 0.00 39 1021.1
20260502204450 24 11 0.0 1.6 0.00 0.00 0.00 42 1021.0
20260502203948 23 103 6.4 9.7 0.00 0.00 0.00 38 1021.1
20260502203445 22 97 4.8 6.4 0.00 0.00 0.00 37 1021.3
20260502202942 23 41 3.2 4.8 0.00 0.00 0.00 40 1021.4
20260502202438 23 6 1.6 4.8 0.00 0.00 0.00 39 1021.5
20260502201937 23 350 0.0 1.6 0.00 0.00 0.00 39 1021.4
20260502201432 23 309 0.0 3.2 0.00 0.00 0.00 42 1021.5
20260502200929 23 3 0.0 1.6 0.00 0.00 0.00 41 1021.6